EWG144 YBCG-YBHM

Flight info

Callsign EWG144
Flight time N/A
Altitude 20000
Route ITIDE DCT SAGLI V308 RK V153 MK DCT MUPOG
Aircraft A320/M-SDE3FGHIRWY/LB1

Departure

Time N/A
Airport Gold Coast Airport (YBCG)

Arrival

Time 2026-04-21 19:40
Airport Hamilton Island Airport (YBHM)
Time Latitude Longitude Altitude Speed Heading
2026-04-21 18:45 -25.35921 152.06758 20184 ft 468 kts 319°
2026-04-21 18:45 -25.33329 152.04554 20189 ft 471 kts 319°
2026-04-21 18:46 -25.30730 152.02341 20187 ft 472 kts 319°
2026-04-21 18:46 -25.28130 152.00125 20186 ft 472 kts 319°
2026-04-21 18:46 -25.25527 151.97906 20188 ft 472 kts 319°
2026-04-21 18:46 -25.22923 151.95687 20182 ft 472 kts 319°
2026-04-21 18:47 -25.20322 151.93472 20188 ft 472 kts 319°
2026-04-21 18:47 -25.17719 151.91259 20179 ft 472 kts 319°
2026-04-21 18:47 -25.15147 151.89075 20185 ft 472 kts 319°
2026-04-21 18:47 -25.12527 151.86867 20184 ft 472 kts 320°
2026-04-21 18:48 -25.09896 151.84693 20188 ft 473 kts 320°
2026-04-21 18:48 -25.07253 151.82541 20186 ft 473 kts 320°
2026-04-21 18:48 -25.04598 151.80393 20188 ft 473 kts 320°
2026-04-21 18:48 -25.01948 151.78251 20188 ft 473 kts 320°
2026-04-21 18:49 -24.99291 151.76098 20188 ft 473 kts 320°
2026-04-21 18:49 -24.96637 151.73941 20189 ft 473 kts 320°
2026-04-21 18:49 -24.94884 151.72514 20189 ft 473 kts 320°
2026-04-21 18:49 -24.91341 151.69630 20187 ft 473 kts 320°
2026-04-21 18:50 -24.88696 151.67470 20192 ft 473 kts 320°
2026-04-21 18:50 -24.86946 151.66039 20193 ft 473 kts 320°
2026-04-21 18:50 -24.83438 151.63175 20196 ft 473 kts 320°
2026-04-21 18:50 -24.80793 151.61023 20187 ft 473 kts 320°
2026-04-21 18:51 -24.78146 151.58875 20185 ft 473 kts 320°
2026-04-21 18:51 -24.75501 151.56726 20188 ft 473 kts 320°
2026-04-21 18:51 -24.72849 151.54578 20189 ft 473 kts 320°
2026-04-21 18:51 -24.71056 151.53125 20190 ft 473 kts 320°
2026-04-21 18:52 -24.68407 151.50977 20194 ft 473 kts 320°
2026-04-21 18:52 -24.65753 151.48826 20195 ft 474 kts 320°
2026-04-21 18:52 -24.63102 151.46677 20195 ft 474 kts 320°
2026-04-21 18:52 -24.60483 151.44557 20196 ft 473 kts 320°
2026-04-21 18:53 -24.57833 151.42412 20193 ft 473 kts 320°
2026-04-21 18:53 -24.55180 151.40264 20191 ft 473 kts 320°
2026-04-21 18:53 -24.52530 151.38120 20181 ft 473 kts 320°
2026-04-21 18:53 -24.49884 151.35985 20180 ft 473 kts 320°
2026-04-21 18:54 -24.47228 151.33845 20179 ft 473 kts 320°
2026-04-21 18:54 -24.44577 151.31706 20175 ft 473 kts 320°
2026-04-21 18:54 -24.41924 151.29562 20176 ft 473 kts 320°
2026-04-21 18:54 -24.39277 151.27418 20175 ft 473 kts 320°
2026-04-21 18:55 -24.36626 151.25273 20178 ft 473 kts 320°
2026-04-21 18:55 -24.33971 151.23136 20175 ft 473 kts 320°
2026-04-21 18:55 -24.31321 151.21007 20178 ft 473 kts 321°
2026-04-21 18:55 -24.28668 151.18876 20179 ft 473 kts 320°
2026-04-21 18:56 -24.26008 151.16738 20171 ft 473 kts 320°
2026-04-21 18:56 -24.23353 151.14603 20172 ft 473 kts 320°
2026-04-21 18:56 -24.20697 151.12469 20173 ft 473 kts 320°
2026-04-21 18:56 -24.18042 151.10337 20170 ft 473 kts 321°
2026-04-21 18:57 -24.15384 151.08206 20174 ft 474 kts 320°
2026-04-21 18:57 -24.12724 151.06072 20168 ft 474 kts 320°
2026-04-21 18:57 -24.10103 151.03968 20162 ft 474 kts 320°
2026-04-21 18:57 -24.07443 151.01834 20166 ft 474 kts 321°
2026-04-21 18:58 -24.04786 150.99705 20166 ft 473 kts 321°
2026-04-21 18:58 -24.02125 150.97585 20169 ft 473 kts 321°
2026-04-21 18:58 -23.99463 150.95471 20163 ft 473 kts 321°
2026-04-21 18:58 -23.96794 150.93356 20162 ft 473 kts 321°
2026-04-21 18:59 -23.94131 150.91247 20162 ft 473 kts 321°
2026-04-21 18:59 -23.91466 150.89134 20162 ft 473 kts 321°
2026-04-21 18:59 -23.88804 150.87023 20161 ft 473 kts 321°
2026-04-21 18:59 -23.86141 150.84914 20156 ft 473 kts 321°
2026-04-21 19:00 -23.83471 150.82800 20149 ft 473 kts 321°
2026-04-21 19:00 -23.80805 150.80685 20155 ft 473 kts 321°
2026-04-21 19:00 -23.78142 150.78573 20159 ft 473 kts 321°
2026-04-21 19:00 -23.75471 150.76459 20159 ft 473 kts 321°
2026-04-21 19:01 -23.72799 150.74349 20153 ft 473 kts 321°
2026-04-21 19:01 -23.70132 150.72245 20152 ft 473 kts 321°
2026-04-21 19:01 -23.67500 150.70168 20155 ft 473 kts 321°
2026-04-21 19:01 -23.64798 150.68032 20156 ft 474 kts 321°
2026-04-21 19:02 -23.62163 150.65950 20158 ft 474 kts 321°
2026-04-21 19:02 -23.59458 150.63811 20159 ft 474 kts 321°
2026-04-21 19:02 -23.56792 150.61706 20163 ft 474 kts 321°
2026-04-21 19:02 -23.54148 150.59622 20165 ft 474 kts 321°
2026-04-21 19:03 -23.51477 150.57523 20163 ft 474 kts 321°
2026-04-21 19:03 -23.48799 150.55420 20165 ft 474 kts 321°
2026-04-21 19:03 -23.46119 150.53313 20168 ft 474 kts 321°
2026-04-21 19:03 -23.43441 150.51208 20171 ft 474 kts 321°
2026-04-21 19:04 -23.40762 150.49104 20173 ft 474 kts 321°
2026-04-21 19:04 -23.38115 150.46964 20172 ft 473 kts 317°
2026-04-21 19:04 -23.35678 150.44574 20171 ft 471 kts 314°
2026-04-21 19:04 -23.33253 150.42162 20174 ft 471 kts 314°
2026-04-21 19:05 -23.30827 150.39755 20173 ft 471 kts 314°
2026-04-21 19:05 -23.28404 150.37353 20175 ft 471 kts 314°
2026-04-21 19:05 -23.25978 150.34948 20176 ft 471 kts 314°
2026-04-21 19:05 -23.23578 150.32568 20176 ft 471 kts 314°
2026-04-21 19:06 -23.21156 150.30168 20176 ft 471 kts 314°
2026-04-21 19:06 -23.18729 150.27768 20171 ft 471 kts 315°
2026-04-21 19:06 -23.16304 150.25373 20171 ft 471 kts 315°
2026-04-21 19:06 -23.13880 150.22978 20172 ft 471 kts 315°
2026-04-21 19:07 -23.11454 150.20582 20171 ft 471 kts 315°
2026-04-21 19:07 -23.09033 150.18191 20171 ft 471 kts 315°
2026-04-21 19:07 -23.06606 150.15797 20162 ft 471 kts 315°
2026-04-21 19:07 -23.04179 150.13405 20159 ft 471 kts 315°
2026-04-21 19:08 -23.01754 150.11018 20157 ft 471 kts 315°
2026-04-21 19:08 -22.99324 150.08624 20158 ft 471 kts 315°
2026-04-21 19:08 -22.96894 150.06229 20159 ft 471 kts 315°
2026-04-21 19:08 -22.94465 150.03838 20163 ft 471 kts 315°
2026-04-21 19:09 -22.92033 150.01448 20162 ft 471 kts 315°
2026-04-21 19:09 -22.89604 149.99062 20161 ft 471 kts 315°
2026-04-21 19:09 -22.87173 149.96672 20163 ft 471 kts 315°
2026-04-21 19:09 -22.84737 149.94280 20164 ft 471 kts 315°
2026-04-21 19:10 -22.82335 149.91919 20162 ft 471 kts 315°
2026-04-21 19:10 -22.79904 149.89528 20163 ft 471 kts 315°
2026-04-21 19:10 -22.77474 149.87142 20158 ft 472 kts 315°
2026-04-21 19:10 -22.75041 149.84758 20153 ft 472 kts 315°
2026-04-21 19:11 -22.72608 149.82377 20160 ft 471 kts 315°
2026-04-21 19:11 -22.70175 149.79997 20156 ft 471 kts 315°
2026-04-21 19:11 -22.67737 149.77615 20160 ft 472 kts 315°
2026-04-21 19:11 -22.65296 149.75231 20164 ft 472 kts 315°
2026-04-21 19:12 -22.62857 149.72848 20162 ft 472 kts 315°
2026-04-21 19:12 -22.60420 149.70469 20161 ft 472 kts 315°
2026-04-21 19:12 -22.57984 149.68088 20170 ft 472 kts 315°
2026-04-21 19:12 -22.55542 149.65700 20165 ft 472 kts 315°
2026-04-21 19:13 -22.53109 149.63320 20165 ft 472 kts 315°
2026-04-21 19:13 -22.50661 149.60946 20175 ft 473 kts 317°
2026-04-21 19:13 -22.47954 149.58903 20146 ft 477 kts 328°
2026-04-21 19:13 -22.44922 149.57415 20150 ft 481 kts 339°
2026-04-21 19:14 -22.41703 149.56397 20155 ft 483 kts 342°
2026-04-21 19:14 -22.38470 149.55416 20155 ft 483 kts 342°
2026-04-21 19:14 -22.35235 149.54428 20155 ft 483 kts 342°
2026-04-21 19:14 -22.32006 149.53435 20153 ft 483 kts 341°
2026-04-21 19:15 -22.28777 149.52440 20142 ft 483 kts 341°
2026-04-21 19:15 -22.25547 149.51448 20151 ft 483 kts 342°
2026-04-21 19:15 -22.22316 149.50460 20148 ft 483 kts 342°
2026-04-21 19:15 -22.19081 149.49476 20141 ft 483 kts 342°
2026-04-21 19:16 -22.15889 149.48502 20138 ft 483 kts 341°
2026-04-21 19:16 -22.12652 149.47511 20140 ft 483 kts 341°
2026-04-21 19:16 -22.09420 149.46522 20143 ft 483 kts 341°
2026-04-21 19:16 -22.06183 149.45532 20137 ft 483 kts 341°
2026-04-21 19:17 -21.99709 149.43555 20137 ft 483 kts 342°
2026-04-21 19:17 -21.96472 149.42574 20136 ft 483 kts 342°
2026-04-21 19:17 -21.93234 149.41594 20138 ft 483 kts 342°
2026-04-21 19:18 -21.89992 149.40611 20138 ft 484 kts 342°
2026-04-21 19:18 -21.86753 149.39625 20130 ft 484 kts 342°
2026-04-21 19:18 -21.83511 149.38639 20136 ft 484 kts 342°
2026-04-21 19:18 -21.80264 149.37649 20145 ft 485 kts 341°
2026-04-21 19:19 -21.77013 149.36660 20146 ft 485 kts 342°
2026-04-21 19:19 -21.73766 149.35674 20149 ft 485 kts 342°
2026-04-21 19:19 -21.70510 149.34686 20152 ft 485 kts 342°
2026-04-21 19:19 -21.67263 149.33702 20157 ft 485 kts 342°
2026-04-21 19:20 -21.64005 149.32715 20151 ft 485 kts 342°
2026-04-21 19:20 -21.60761 149.31733 20149 ft 485 kts 342°
2026-04-21 19:20 -21.57511 149.30748 20149 ft 485 kts 342°
2026-04-21 19:20 -21.54310 149.29776 20149 ft 485 kts 342°
2026-04-21 19:21 -21.51065 149.28793 20142 ft 485 kts 342°
2026-04-21 19:21 -21.47817 149.27814 20144 ft 485 kts 342°
2026-04-21 19:21 -21.44561 149.26841 20143 ft 485 kts 342°
2026-04-21 19:21 -21.41310 149.25872 20148 ft 485 kts 342°
2026-04-21 19:22 -21.38060 149.24906 20147 ft 485 kts 342°
2026-04-21 19:22 -21.34810 149.23940 20143 ft 485 kts 342°
2026-04-21 19:22 -21.31556 149.22972 20139 ft 485 kts 342°
2026-04-21 19:22 -21.28310 149.22004 20140 ft 485 kts 342°
2026-04-21 19:23 -21.25059 149.21034 20128 ft 485 kts 342°
2026-04-21 19:23 -21.21804 149.20065 20133 ft 485 kts 342°
2026-04-21 19:23 -21.18547 149.19096 20131 ft 485 kts 342°
2026-04-21 19:23 -21.15293 149.18124 20126 ft 486 kts 342°
2026-04-21 19:24 -21.12041 149.17141 20128 ft 486 kts 341°
2026-04-21 19:24 -21.08787 149.16151 20128 ft 486 kts 341°
2026-04-21 19:24 -21.05539 149.15160 20129 ft 485 kts 341°
2026-04-21 19:24 -21.02288 149.14167 20128 ft 485 kts 341°
2026-04-21 19:25 -20.99035 149.13178 20127 ft 485 kts 341°
2026-04-21 19:25 -20.95832 149.12208 19930 ft 471 kts 341°
2026-04-21 19:25 -20.92703 149.11262 19500 ft 463 kts 342°
2026-04-21 19:25 -20.89607 149.10324 18709 ft 461 kts 342°
2026-04-21 19:26 -20.86532 149.09390 17927 ft 458 kts 342°
2026-04-21 19:26 -20.83483 149.08466 17222 ft 453 kts 342°
2026-04-21 19:26 -20.80470 149.07555 16562 ft 447 kts 342°
2026-04-21 19:26 -20.77484 149.06652 15921 ft 442 kts 342°
2026-04-21 19:27 -20.74578 149.05772 15316 ft 437 kts 343°
2026-04-21 19:27 -20.71624 149.04880 14711 ft 433 kts 343°
2026-04-21 19:27 -20.68769 149.04019 14108 ft 430 kts 343°
2026-04-21 19:27 -20.65904 149.03155 13437 ft 426 kts 343°
2026-04-21 19:28 -20.63072 149.02301 12817 ft 421 kts 343°
2026-04-21 19:28 -20.60265 149.01455 12136 ft 417 kts 343°
2026-04-21 19:28 -20.57487 149.00618 11469 ft 414 kts 343°
2026-04-21 19:28 -20.54742 148.99790 11059 ft 407 kts 343°
2026-04-21 19:29 -20.51992 148.98960 10815 ft 400 kts 344°
2026-04-21 19:29 -20.49386 148.98174 10570 ft 376 kts 343°
2026-04-21 19:29 -20.46965 148.97443 10338 ft 349 kts 343°
2026-04-21 19:29 -20.44741 148.96752 10105 ft 326 kts 340°
2026-04-21 19:30 -20.42753 148.95755 9924 ft 311 kts 327°
2026-04-21 19:30 -20.41011 148.94359 9783 ft 306 kts 315°
2026-04-21 19:30 -20.39449 148.92825 9659 ft 304 kts 316°
2026-04-21 19:30 -20.37911 148.91321 9504 ft 305 kts 317°
2026-04-21 19:31 -20.36345 148.89789 9279 ft 307 kts 316°
2026-04-21 19:31 -20.34761 148.88241 8856 ft 307 kts 317°
2026-04-21 19:31 -20.33180 148.86694 8397 ft 305 kts 317°
2026-04-21 19:31 -20.31643 148.85190 7863 ft 298 kts 317°
2026-04-21 19:32 -20.30637 148.84204 7454 ft 295 kts 319°
2026-04-21 19:32 -20.29128 148.82727 6803 ft 293 kts 319°
2026-04-21 19:32 -20.27608 148.81241 6126 ft 292 kts 319°
2026-04-21 19:32 -20.26142 148.79810 5714 ft 287 kts 319°
2026-04-21 19:33 -20.24659 148.78366 5657 ft 288 kts 320°
2026-04-21 19:33 -20.23049 148.77300 5562 ft 259 kts 347°
2026-04-21 19:33 -20.21357 148.77145 5470 ft 238 kts 14°
2026-04-21 19:33 -20.19840 148.77749 5153 ft 234 kts 39°
2026-04-21 19:34 -20.18738 148.78991 4653 ft 232 kts 65°
2026-04-21 19:34 -20.18297 148.80591 4195 ft 221 kts 98°
2026-04-21 19:34 -20.18894 148.81990 3889 ft 205 kts 139°
2026-04-21 19:34 -20.20067 148.82770 3628 ft 195 kts 147°
2026-04-21 19:35 -20.21151 148.83569 3371 ft 185 kts 142°
2026-04-21 19:35 -20.23107 148.85091 2921 ft 164 kts 142°
2026-04-21 19:35 -20.24013 148.85801 2707 ft 160 kts 142°
2026-04-21 19:36 -20.24893 148.86494 2483 ft 157 kts 142°
2026-04-21 19:36 -20.25767 148.87187 2272 ft 155 kts 142°
2026-04-21 19:36 -20.26597 148.87847 2075 ft 142 kts 141°
2026-04-21 19:36 -20.27363 148.88457 1893 ft 134 kts 141°
2026-04-21 19:37 -20.28089 148.89035 1724 ft 128 kts 142°
2026-04-21 19:37 -20.28790 148.89595 1558 ft 124 kts 141°
2026-04-21 19:37 -20.29479 148.90145 1393 ft 123 kts 141°
2026-04-21 19:37 -20.30161 148.90690 1230 ft 122 kts 141°
2026-04-21 19:38 -20.30842 148.91244 1032 ft 124 kts 141°
2026-04-21 19:38 -20.31532 148.91799 820 ft 124 kts 141°
2026-04-21 19:38 -20.32213 148.92356 711 ft 123 kts 139°
2026-04-21 19:38 -20.32903 148.92900 540 ft 123 kts 142°
2026-04-21 19:39 -20.33595 148.93447 451 ft 124 kts 139°
2026-04-21 19:39 -20.34280 148.94010 295 ft 124 kts 142°
2026-04-21 19:39 -20.34977 148.94552 92 ft 124 kts 140°
2026-04-21 19:39 -20.35653 148.95080 30 ft 109 kts 140°
2026-04-21 19:40 -20.36068 148.95419 19 ft 39 kts 143°
2026-04-21 19:40 -20.36249 148.95563 19 ft 25 kts 143°
2026-04-21 19:40 -20.36336 148.95616 22 ft 11 kts 154°
2026-04-21 19:40 -20.36407 148.95642 23 ft 11 kts 133°
2026-04-21 19:41 -20.36360 148.95655 23 ft 13 kts 324°
2026-04-21 19:41 -20.36282 148.95595 20 ft 14 kts 324°
2026-04-21 19:41 -20.36201 148.95529 19 ft 14 kts 321°
2026-04-21 19:41 -20.36126 148.95466 19 ft 14 kts 322°
2026-04-21 19:42 -20.36004 148.95369 18 ft 29 kts 323°
2026-04-21 19:42 -20.35846 148.95243 23 ft 27 kts 322°
2026-04-21 19:42 -20.35704 148.95128 22 ft 25 kts 323°
2026-04-21 19:42 -20.35574 148.95024 29 ft 22 kts 323°
2026-04-21 19:43 -20.35459 148.94937 25 ft 17 kts 335°
2026-04-21 19:43 -20.35362 148.94993 18 ft 14 kts 30°
2026-04-21 19:43 -20.35296 148.94984 18 ft 7 kts
2026-04-21 19:43 -20.35268 148.94997 19 ft 2 kts 33°
2026-04-21 19:44 -20.35264 148.95000 19 ft 2 kts 33°
2026-04-21 19:44 -20.35261 148.95002 18 ft 0 kts 33°